TimeMDT,TemperatureF,Dew PointF,Humidity,Sea Level PressureIn,VisibilityMPH,Wind Direction,Wind SpeedMPH,Gust SpeedMPH,PrecipitationIn,Events,Conditions,WindDirDegrees,DateUTC
12:53 AM,30.9,24.1,76,30.30,10.0,WSW,4.6,-,N/A,,Clear,250,2013-03-13 06:53:00
1:53 AM,32.0,25.0,75,30.27,10.0,SSW,11.5,-,N/A,,Clear,210,2013-03-13 07:53:00
2:53 AM,30.0,25.0,82,30.25,10.0,SW,9.2,-,N/A,,Clear,230,2013-03-13 08:53:00
3:53 AM,32.0,26.1,79,30.22,10.0,WSW,11.5,-,N/A,,Clear,240,2013-03-13 09:53:00
4:53 AM,28.9,25.0,85,30.23,10.0,WSW,11.5,-,N/A,,Clear,250,2013-03-13 10:53:00
5:53 AM,28.0,24.1,85,30.25,10.0,West,9.2,-,N/A,,Clear,270,2013-03-13 11:53:00
6:53 AM,27.0,23.0,85,30.27,10.0,West,15.0,-,N/A,,Clear,280,2013-03-13 12:53:00
7:53 AM,28.0,25.0,88,30.30,9.0,West,13.8,-,N/A,,Clear,270,2013-03-13 13:53:00
8:53 AM,34.0,28.9,82,30.30,10.0,West,10.4,-,N/A,,Clear,260,2013-03-13 14:53:00
9:53 AM,39.9,30.9,70,30.30,10.0,West,4.6,-,N/A,,Clear,260,2013-03-13 15:53:00
10:53 AM,46.9,30.9,54,30.27,10.0,West,12.7,-,N/A,,Clear,280,2013-03-13 16:53:00
11:53 AM,53.1,32.0,45,30.25,10.0,WNW,11.5,-,N/A,,Clear,300,2013-03-13 17:53:00
12:53 PM,57.9,30.0,35,30.22,10.0,NW,17.3,-,N/A,,Clear,310,2013-03-13 18:53:00
1:53 PM,60.1,27.0,28,30.19,10.0,NW,16.1,21.9,N/A,,Clear,310,2013-03-13 19:53:00
2:53 PM,61.0,28.9,30,30.17,10.0,WNW,15.0,21.9,N/A,,Clear,300,2013-03-13 20:53:00
3:53 PM,61.0,28.0,29,30.16,10.0,WNW,11.5,-,N/A,,Clear,300,2013-03-13 21:53:00
4:53 PM,61.0,27.0,27,30.16,10.0,West,12.7,-,N/A,,Clear,260,2013-03-13 22:53:00
5:53 PM,57.9,28.0,32,30.17,10.0,WSW,11.5,-,N/A,,Clear,240,2013-03-13 23:53:00
6:53 PM,52.0,28.9,41,30.20,10.0,SW,9.2,-,N/A,,Clear,220,2013-03-14 00:53:00
7:53 PM,48.0,30.0,50,30.21,10.0,SW,13.8,-,N/A,,Clear,230,2013-03-14 01:53:00
8:53 PM,46.9,28.9,50,30.20,10.0,SW,12.7,-,N/A,,Clear,230,2013-03-14 02:53:00
9:53 PM,46.9,28.0,48,30.19,10.0,SW,12.7,-,N/A,,Clear,220,2013-03-14 03:53:00
10:53 PM,48.9,27.0,43,30.18,10.0,SW,13.8,-,N/A,,Clear,230,2013-03-14 04:53:00
11:53 PM,46.0,28.0,50,30.16,10.0,SW,13.8,-,N/A,,Clear,220,2013-03-14 05:53:00